Time,TemperatureF,DewpointF,PressureIn,WindDirection,WindDirectionDegrees,WindSpeedMPH,WindSpeedGustMPH,Humidity,HourlyPrecipIn,Conditions,Clouds,dailyrainin,SolarRadiationWatts/m^2,SoftwareType,DateUTC
2013-04-13 00:05:00,2.0,-5.0,-100.00,NNW,331,28.0,34.0,71,0.00,,,0.00,0.700000,,2013-04-13 08:05:00,
2013-04-13 00:24:00,2.0,-5.0,-100.00,NNW,331,28.0,34.0,71,0.00,,,0.00,0.700000,,2013-04-13 08:24:00,
2013-04-13 00:33:00,2.0,-5.0,-100.00,NNW,331,28.0,34.0,71,0.00,,,0.00,0.700000,,2013-04-13 08:33:00,
2013-04-13 00:43:00,1.0,-5.0,-100.00,NW,320,11.0,35.0,74,0.00,,,0.00,0.700000,,2013-04-13 08:43:00,
2013-04-13 01:04:00,1.0,-5.0,-100.00,NW,320,11.0,35.0,74,0.00,,,0.00,0.700000,,2013-04-13 09:04:00,
2013-04-13 01:13:00,1.0,-5.0,-100.00,NW,320,11.0,35.0,74,0.00,,,0.00,0.700000,,2013-04-13 09:13:00,
2013-04-13 01:23:00,1.0,-5.0,-100.00,NW,320,11.0,35.0,74,0.00,,,0.00,0.700000,,2013-04-13 09:23:00,
2013-04-13 01:33:00,1.0,-5.0,-100.00,NW,320,11.0,35.0,74,0.00,,,0.00,0.700000,,2013-04-13 09:33:00,
2013-04-13 02:04:00,0.0,-6.0,-100.00,NW,311,15.0,29.0,73,0.00,,,0.00,0.700000,,2013-04-13 10:04:00,
2013-04-13 02:15:00,0.0,-6.0,-100.00,NW,311,15.0,29.0,73,0.00,,,0.00,0.700000,,2013-04-13 10:15:00,
2013-04-13 02:23:00,0.0,-6.0,-100.00,NW,311,15.0,29.0,73,0.00,,,0.00,0.700000,,2013-04-13 10:23:00,
2013-04-13 02:35:00,0.0,-6.0,-100.00,NW,311,15.0,29.0,73,0.00,,,0.00,0.700000,,2013-04-13 10:35:00,
2013-04-13 02:43:00,1.0,-4.0,-100.00,NW,310,9.0,23.0,78,0.00,,,0.00,0.700000,,2013-04-13 10:43:00,
2013-04-13 03:05:00,1.0,-4.0,-100.00,NW,310,9.0,23.0,78,0.00,,,0.00,0.700000,,2013-04-13 11:05:00,
2013-04-13 03:23:00,1.0,-4.0,-100.00,NW,310,9.0,23.0,78,0.00,,,0.00,0.700000,,2013-04-13 11:23:00,
2013-04-13 03:33:00,1.0,-4.0,-100.00,NW,310,9.0,23.0,78,0.00,,,0.00,0.700000,,2013-04-13 11:33:00,
2013-04-13 04:14:00,1.0,-5.0,-100.00,ENE,71,5.0,19.0,78,0.00,,,0.00,0.700000,,2013-04-13 12:14:00,
2013-04-13 04:23:00,1.0,-5.0,-100.00,ENE,71,5.0,19.0,78,0.00,,,0.00,0.700000,,2013-04-13 12:23:00,
2013-04-13 04:34:00,1.0,-5.0,-100.00,ENE,71,5.0,19.0,78,0.00,,,0.00,0.700000,,2013-04-13 12:34:00,
2013-04-13 04:43:00,0.0,-7.0,-100.00,NNW,345,6.0,22.0,74,0.00,,,0.00,0.700000,,2013-04-13 12:43:00,
2013-04-13 05:05:00,0.0,-7.0,-100.00,NNW,345,6.0,22.0,74,0.00,,,0.00,0.700000,,2013-04-13 13:05:00,
2013-04-13 05:14:00,0.0,-7.0,-100.00,NNW,345,6.0,22.0,74,0.00,,,0.00,0.700000,,2013-04-13 13:14:00,
2013-04-13 05:23:00,0.0,-7.0,-100.00,NNW,345,6.0,22.0,74,0.00,,,0.00,0.700000,,2013-04-13 13:23:00,
2013-04-13 05:33:00,0.0,-7.0,-100.00,NNW,345,6.0,22.0,74,0.00,,,0.00,0.700000,,2013-04-13 13:33:00,
2013-04-13 06:04:00,0.0,-7.0,-100.00,NW,318,15.0,15.0,71,0.00,,,0.00,0.700000,,2013-04-13 14:04:00,
2013-04-13 06:13:00,0.0,-7.0,-100.00,NW,318,15.0,15.0,71,0.00,,,0.00,0.700000,,2013-04-13 14:13:00,
2013-04-13 06:23:00,0.0,-7.0,-100.00,NW,318,15.0,15.0,71,0.00,,,0.00,0.700000,,2013-04-13 14:23:00,
2013-04-13 06:34:00,0.0,-7.0,-100.00,NW,318,15.0,15.0,71,0.00,,,0.00,0.700000,,2013-04-13 14:34:00,
2013-04-13 06:42:00,0.0,-7.0,-100.00,NW,318,15.0,15.0,71,0.00,,,0.00,0.700000,,2013-04-13 14:42:00,
2013-04-13 06:43:00,1.0,-7.0,-100.00,NW,317,13.0,19.0,69,0.00,,,0.00,1.300000,,2013-04-13 14:43:00,
2013-04-13 07:04:00,1.0,-7.0,-100.00,NW,317,13.0,19.0,69,0.00,,,0.00,1.300000,,2013-04-13 15:04:00,
2013-04-13 07:13:00,1.0,-7.0,-100.00,NW,317,13.0,19.0,69,0.00,,,0.00,1.300000,,2013-04-13 15:13:00,
2013-04-13 07:25:00,1.0,-7.0,-100.00,NW,317,13.0,19.0,69,0.00,,,0.00,1.300000,,2013-04-13 15:25:00,
2013-04-13 07:34:00,1.0,-7.0,-100.00,NW,317,13.0,19.0,69,0.00,,,0.00,1.300000,,2013-04-13 15:34:00,
2013-04-13 07:43:00,2.0,-8.0,-100.00,NW,320,13.0,20.0,62,0.00,,,0.00,44.900002,,2013-04-13 15:43:00,
2013-04-13 08:05:00,2.0,-8.0,-100.00,NW,320,13.0,20.0,62,0.00,,,0.00,44.900002,,2013-04-13 16:05:00,
2013-04-13 08:14:00,2.0,-8.0,-100.00,NW,320,13.0,20.0,62,0.00,,,0.00,44.900002,,2013-04-13 16:14:00,
2013-04-13 08:24:00,2.0,-8.0,-100.00,NW,320,13.0,20.0,62,0.00,,,0.00,44.900002,,2013-04-13 16:24:00,
2013-04-13 08:34:00,2.0,-8.0,-100.00,NW,320,13.0,20.0,62,0.00,,,0.00,44.900002,,2013-04-13 16:34:00,
2013-04-13 10:04:00,6.0,-8.0,-100.00,WNW,291,9.0,23.0,51,-99.99,,,0.00,309.799988,,2013-04-13 18:04:00,
2013-04-13 10:14:00,6.0,-8.0,-100.00,WNW,291,9.0,23.0,51,-99.99,,,0.00,309.799988,,2013-04-13 18:14:00,
2013-04-13 10:23:00,6.0,-8.0,-100.00,WNW,291,9.0,23.0,51,-99.99,,,0.00,309.799988,,2013-04-13 18:23:00,
2013-04-13 10:32:00,6.0,-8.0,-100.00,WNW,291,9.0,23.0,51,-99.99,,,0.00,309.799988,,2013-04-13 18:32:00,
2013-04-13 10:42:00,6.0,-8.0,-100.00,WNW,291,9.0,23.0,51,-99.99,,,0.00,309.799988,,2013-04-13 18:42:00,
2013-04-13 11:02:00,7.0,-7.0,-100.00,NW,317,7.0,19.0,52,0.00,,,0.00,441.600006,,2013-04-13 19:02:00,
2013-04-13 11:12:00,7.0,-7.0,-100.00,NW,317,7.0,19.0,52,0.00,,,0.00,441.600006,,2013-04-13 19:12:00,
2013-04-13 11:22:00,7.0,-7.0,-100.00,NW,317,7.0,19.0,52,0.00,,,0.00,441.600006,,2013-04-13 19:22:00,
2013-04-13 11:32:00,7.0,-7.0,-100.00,NW,317,7.0,19.0,52,0.00,,,0.00,441.600006,,2013-04-13 19:32:00,
2013-04-13 11:42:00,7.0,-7.0,-100.00,NW,317,7.0,19.0,52,0.00,,,0.00,441.600006,,2013-04-13 19:42:00,
2013-04-13 12:02:00,6.0,-7.0,-100.00,NW,311,13.0,16.0,54,0.00,,,-99.99,554.799988,,2013-04-13 20:02:00,
2013-04-13 12:12:00,6.0,-7.0,-100.00,NW,311,13.0,16.0,54,0.00,,,-99.99,554.799988,,2013-04-13 20:12:00,
2013-04-13 12:22:00,6.0,-7.0,-100.00,NW,311,13.0,16.0,54,0.00,,,-99.99,554.799988,,2013-04-13 20:22:00,
2013-04-13 12:32:00,6.0,-7.0,-100.00,NW,311,13.0,16.0,54,0.00,,,-99.99,554.799988,,2013-04-13 20:32:00,
2013-04-13 12:42:00,6.0,-7.0,-100.00,NW,311,13.0,16.0,54,0.00,,,-99.99,554.799988,,2013-04-13 20:42:00,
2013-04-13 12:43:00,9.0,-4.0,-100.00,WNW,295,8.0,18.0,53,0.00,,,0.00,637.500000,,2013-04-13 20:43:00,
2013-04-13 13:02:00,9.0,-4.0,-100.00,WNW,295,8.0,18.0,53,0.00,,,0.00,637.500000,,2013-04-13 21:02:00,
2013-04-13 13:12:00,9.0,-4.0,-100.00,WNW,295,8.0,18.0,53,0.00,,,0.00,637.500000,,2013-04-13 21:12:00,
2013-04-13 13:22:00,9.0,-4.0,-100.00,WNW,295,8.0,18.0,53,0.00,,,0.00,637.500000,,2013-04-13 21:22:00,
2013-04-13 13:32:00,9.0,-4.0,-100.00,WNW,295,8.0,18.0,53,0.00,,,0.00,637.500000,,2013-04-13 21:32:00,
2013-04-13 14:02:00,11.0,-4.0,-100.00,WNW,296,8.0,13.0,50,0.00,,,0.00,685.799988,,2013-04-13 22:02:00,
2013-04-13 14:12:00,11.0,-4.0,-100.00,WNW,296,8.0,13.0,50,0.00,,,0.00,685.799988,,2013-04-13 22:12:00,
2013-04-13 14:22:00,11.0,-4.0,-100.00,WNW,296,8.0,13.0,50,0.00,,,0.00,685.799988,,2013-04-13 22:22:00,
2013-04-13 14:32:00,11.0,-4.0,-100.00,WNW,296,8.0,13.0,50,0.00,,,0.00,685.799988,,2013-04-13 22:32:00,
2013-04-13 14:42:00,11.0,-4.0,-100.00,WNW,296,8.0,13.0,50,0.00,,,0.00,685.799988,,2013-04-13 22:42:00,
2013-04-13 15:02:00,11.0,-2.0,-100.00,WNW,292,9.0,11.0,53,0.00,,,0.00,694.000000,,2013-04-13 23:02:00,
2013-04-13 15:12:00,11.0,-2.0,-100.00,WNW,292,9.0,11.0,53,0.00,,,0.00,694.000000,,2013-04-13 23:12:00,
2013-04-13 15:22:00,11.0,-2.0,-100.00,WNW,292,9.0,11.0,53,0.00,,,0.00,694.000000,,2013-04-13 23:22:00,
2013-04-13 15:32:00,11.0,-2.0,-100.00,WNW,292,9.0,11.0,53,0.00,,,0.00,694.000000,,2013-04-13 23:32:00,
2013-04-13 15:41:00,11.0,-2.0,-100.00,WNW,292,9.0,11.0,53,0.00,,,0.00,694.000000,,2013-04-13 23:41:00,
2013-04-13 16:02:00,11.0,-2.0,-100.00,NW,306,12.0,16.0,55,0.00,,,-99.99,662.000000,,2013-04-14 00:02:00,
2013-04-13 16:12:00,11.0,-2.0,-100.00,NW,306,12.0,16.0,55,0.00,,,-99.99,662.000000,,2013-04-14 00:12:00,
2013-04-13 16:22:00,11.0,-2.0,-100.00,NW,306,12.0,16.0,55,0.00,,,-99.99,662.000000,,2013-04-14 00:22:00,
2013-04-13 16:32:00,11.0,-2.0,-100.00,NW,306,12.0,16.0,55,0.00,,,-99.99,662.000000,,2013-04-14 00:32:00,
2013-04-13 16:42:00,11.0,-2.0,-100.00,NW,306,12.0,16.0,55,0.00,,,-99.99,662.000000,,2013-04-14 00:42:00,
2013-04-13 17:02:00,12.0,-2.0,-100.00,WNW,298,11.0,15.0,52,0.00,,,0.00,594.200012,,2013-04-14 01:02:00,
2013-04-13 17:12:00,12.0,-2.0,-100.00,WNW,298,11.0,15.0,52,0.00,,,0.00,594.200012,,2013-04-14 01:12:00,
2013-04-13 17:32:00,12.0,-2.0,-100.00,WNW,298,11.0,15.0,52,0.00,,,0.00,594.200012,,2013-04-14 01:32:00,
2013-04-13 17:41:00,12.0,-2.0,-100.00,WNW,298,11.0,15.0,52,0.00,,,0.00,594.200012,,2013-04-14 01:41:00,
2013-04-13 18:02:00,11.0,-3.0,-100.00,WNW,297,16.0,16.0,53,0.00,,,0.00,493.899994,,2013-04-14 02:02:00,
2013-04-13 18:12:00,11.0,-3.0,-100.00,WNW,297,16.0,16.0,53,0.00,,,0.00,493.899994,,2013-04-14 02:12:00,
2013-04-13 18:22:00,11.0,-3.0,-100.00,WNW,297,16.0,16.0,53,0.00,,,0.00,493.899994,,2013-04-14 02:22:00,
2013-04-13 18:32:00,11.0,-3.0,-100.00,WNW,297,16.0,16.0,53,0.00,,,0.00,493.899994,,2013-04-14 02:32:00,
2013-04-13 18:42:00,11.0,-3.0,-100.00,WNW,297,16.0,16.0,53,0.00,,,0.00,493.899994,,2013-04-14 02:42:00,
2013-04-13 19:02:00,11.0,-4.0,-100.00,WNW,301,14.0,19.0,50,0.00,,,0.00,368.600006,,2013-04-14 03:02:00,
2013-04-13 19:12:00,11.0,-4.0,-100.00,WNW,301,14.0,19.0,50,0.00,,,0.00,368.600006,,2013-04-14 03:12:00,
2013-04-13 19:33:00,11.0,-4.0,-100.00,WNW,301,14.0,19.0,50,0.00,,,0.00,368.600006,,2013-04-14 03:33:00,
2013-04-13 19:42:00,11.0,-4.0,-100.00,WNW,301,14.0,19.0,50,0.00,,,0.00,368.600006,,2013-04-14 03:42:00,
2013-04-13 20:02:00,7.0,-6.0,-100.00,WNW,299,19.0,21.0,55,0.00,,,0.00,192.600006,,2013-04-14 04:02:00,
2013-04-13 20:12:00,7.0,-6.0,-100.00,WNW,299,19.0,21.0,55,0.00,,,0.00,192.600006,,2013-04-14 04:12:00,
2013-04-13 20:22:00,7.0,-6.0,-100.00,WNW,299,19.0,21.0,55,0.00,,,0.00,192.600006,,2013-04-14 04:22:00,
2013-04-13 20:32:00,7.0,-6.0,-100.00,WNW,299,19.0,21.0,55,0.00,,,0.00,192.600006,,2013-04-14 04:32:00,
2013-04-13 20:42:00,7.0,-6.0,-100.00,WNW,299,19.0,21.0,55,0.00,,,0.00,192.600006,,2013-04-14 04:42:00,
2013-04-13 21:02:00,8.0,-6.0,-100.00,NW,312,15.0,22.0,52,0.00,,,0.00,57.700001,,2013-04-14 05:02:00,
2013-04-13 21:12:00,8.0,-6.0,-100.00,NW,312,15.0,22.0,52,0.00,,,0.00,57.700001,,2013-04-14 05:12:00,
2013-04-13 21:22:00,8.0,-6.0,-100.00,NW,312,15.0,22.0,52,0.00,,,0.00,57.700001,,2013-04-14 05:22:00,
2013-04-13 21:32:00,8.0,-6.0,-100.00,NW,312,15.0,22.0,52,0.00,,,0.00,57.700001,,2013-04-14 05:32:00,
2013-04-13 21:42:00,8.0,-6.0,-100.00,NW,312,15.0,22.0,52,0.00,,,0.00,57.700001,,2013-04-14 05:42:00,
2013-04-13 22:02:00,7.0,-5.0,-100.00,NW,310,17.0,23.0,55,0.00,,,0.00,10.800000,,2013-04-14 06:02:00,
2013-04-13 22:12:00,7.0,-5.0,-100.00,NW,310,17.0,23.0,55,0.00,,,0.00,10.800000,,2013-04-14 06:12:00,
2013-04-13 22:22:00,7.0,-5.0,-100.00,NW,310,17.0,23.0,55,0.00,,,0.00,10.800000,,2013-04-14 06:22:00,
2013-04-13 22:32:00,7.0,-5.0,-100.00,NW,310,17.0,23.0,55,0.00,,,0.00,10.800000,,2013-04-14 06:32:00,
2013-04-13 22:42:00,7.0,-5.0,-100.00,NW,310,17.0,23.0,55,0.00,,,0.00,10.800000,,2013-04-14 06:42:00,
2013-04-13 23:02:00,8.0,-5.0,-100.00,South,178,7.0,29.0,54,0.00,,,0.00,0.700000,,2013-04-14 07:02:00,
2013-04-13 23:12:00,8.0,-5.0,-100.00,South,178,7.0,29.0,54,0.00,,,0.00,0.700000,,2013-04-14 07:12:00,
2013-04-13 23:22:00,8.0,-5.0,-100.00,South,178,7.0,29.0,54,0.00,,,0.00,0.700000,,2013-04-14 07:22:00,
2013-04-13 23:32:00,8.0,-5.0,-100.00,South,178,7.0,29.0,54,0.00,,,0.00,0.700000,,2013-04-14 07:32:00,
2013-04-13 23:42:00,8.0,-5.0,-100.00,South,178,7.0,29.0,54,0.00,,,0.00,0.700000,,2013-04-14 07:42:00,